DateTimeUTC,F1_A11,F1_S11,BsB_S11,BsG_S11,BsR_S11,BbsB_S11,BbsG_S11,BbsR_S11,BaB_A11,BaG_A11,BaR_A11,Tu_S11,T_S11,Uu_S11,U_S11,P_S11,T1_A11
2021-07-20T20:00:00Z,00000200,20000000,,,,,,,-000.12,-000.02,-000.38,19.4,26.0,06.9,04.6,0670.2,31.1
2021-07-20T20:01:00Z,00000200,20000000,,,,,,,-000.07,-000.53,0000.05,19.4,26.0,06.9,04.6,0670.2,31.1
2021-07-20T20:02:00Z,00000200,20000000,,,,,,,0000.20,0000.55,-000.20,19.4,26.0,06.9,04.6,0670.2,31.1
2021-07-20T20:03:00Z,00000200,60000000,,,,,,,0000.19,0000.14,0000.35,19.4,26.0,06.9,04.6,0670.2,31.1
2021-07-20T20:04:00Z,00000200,40000000,0001.57,0000.58,0000.31,0000.08,-000.14,0000.09,0000.12,-000.26,0000.09,19.4,25.8,07.1,04.9,0671.1,31.2
2021-07-20T20:05:00Z,00000200,00000000,0000.33,0000.43,0000.54,0000.76,-000.01,0000.35,0000.28,0000.32,0000.46,19.5,25.8,07.2,04.9,0671.2,31.1
2021-07-20T20:06:00Z,00000200,00000000,0001.36,0000.58,0000.28,-000.27,0000.55,0000.22,-000.01,0000.42,-000.00,19.5,25.8,07.4,05.0,0671.2,31.1
2021-07-20T20:07:00Z,00000200,00000000,0001.52,0000.13,0000.51,0000.19,-000.02,0000.21,0000.20,0000.05,0000.09,19.5,25.8,07.6,05.2,0671.2,31.1
2021-07-20T20:08:00Z,00000200,00000000,0000.78,0000.18,0000.06,-000.19,0000.06,-000.05,0000.15,0000.12,-000.01,19.5,25.7,07.6,05.2,0671.2,31.1
2021-07-20T20:09:00Z,00000200,00000000,0000.52,0000.24,0000.10,0000.02,0000.19,0000.39,0000.06,-000.16,0000.13,19.5,25.7,07.7,05.2,0671.2,31.1
2021-07-20T20:10:00Z,00000200,00000000,0000.05,0000.54,0000.44,0000.12,0000.05,0000.11,-000.03,0000.22,-000.08,19.5,25.7,07.6,05.2,0671.2,31.1
2021-07-20T20:11:00Z,00000200,00000000,0001.41,0000.49,0000.37,-000.12,0000.36,-000.20,-000.03,-000.38,0000.32,19.5,25.7,07.6,05.2,0671.2,31.1
2021-07-20T20:12:00Z,00000200,00000000,0001.43,0000.37,0000.70,-000.18,0000.14,0000.20,0000.28,0000.40,-000.19,19.5,25.7,07.6,05.2,0671.2,31.1
2021-07-20T20:13:00Z,00000200,00000000,0001.62,0000.78,0000.55,0000.54,-000.26,0000.18,-000.45,-000.29,0000.28,19.5,25.7,07.6,05.2,0671.2,31.1
2021-07-20T20:14:00Z,00000200,00000000,0001.41,0000.76,0000.58,0000.35,0000.09,-000.15,0000.15,0000.20,-000.13,19.5,25.7,07.7,05.2,0671.2,31.1
2021-07-20T20:15:00Z,00000200,00000000,0001.53,0000.78,0000.68,-000.18,0000.23,0000.02,0000.26,-000.01,0000.37,19.5,25.7,07.6,05.2,0671.2,31.1
2021-07-20T20:16:00Z,00000200,00000000,0001.41,0000.60,0000.64,-000.03,0000.14,0000.14,-000.01,-000.03,-000.28,19.5,25.7,07.6,05.2,0671.2,31.1
2021-07-20T20:17:00Z,00000200,00000000,0001.86,0000.66,0000.26,0000.56,0000.00,-000.04,-000.10,0000.19,0000.02,19.5,25.7,07.6,05.2,0671.2,31.1
2021-07-20T20:18:00Z,00000200,00000000,0000.96,0000.68,0000.59,0000.29,0000.04,-000.03,-000.08,-000.15,0000.21,19.5,25.7,07.7,05.3,0671.2,31.2
2021-07-20T20:19:00Z,00000200,00000000,0001.20,0000.71,0000.61,0000.45,0000.20,-000.06,0000.21,0000.12,0000.08,19.5,25.7,07.7,05.3,0671.2,31.2
2021-07-20T20:20:00Z,00000200,00000000,0001.20,0000.50,0000.90,-000.25,0000.18,0000.11,0000.15,-000.09,0000.14,19.5,25.7,07.7,05.2,0671.2,31.1
2021-07-20T20:21:00Z,00000200,00000000,0000.50,0000.59,0000.58,0000.14,0000.40,0000.32,-000.00,0000.12,-000.03,19.5,25.7,07.7,05.3,0671.2,31.1
2021-07-20T20:22:00Z,00000200,00000000,0001.12,0000.46,0000.50,0000.18,0000.09,0000.49,0000.13,0000.17,0000.00,19.5,25.7,07.7,05.3,0671.2,31.2
2021-07-20T20:23:00Z,00000200,00000000,0001.09,0000.63,0000.61,-000.11,0000.25,0000.27,-000.09,-000.04,0000.50,19.5,25.7,07.7,05.3,0671.2,31.1
2021-07-20T20:24:00Z,00000200,00000000,0000.89,0000.62,0000.64,0000.16,0000.02,0000.27,-000.03,0000.02,-000.35,19.5,25.7,07.8,05.3,0671.2,31.1
2021-07-20T20:25:00Z,00000200,00000000,0000.31,0000.54,0000.51,0000.37,-000.04,0000.18,0000.04,0000.21,0000.03,19.5,25.7,07.8,05.4,0671.1,31.1
2021-07-20T20:26:00Z,00000200,00000000,0001.22,0000.92,0000.70,-000.06,0000.26,0000.24,-000.10,-000.17,0000.08,19.5,25.7,07.8,05.4,0671.1,31.1
2021-07-20T20:27:00Z,00000200,00000000,0001.57,0000.71,0000.53,-000.25,0000.02,0000.03,0000.16,0000.22,-000.09,19.5,25.7,07.7,05.3,0671.1,31.1
2021-07-20T20:28:00Z,00000200,00000000,0000.97,0000.69,0000.36,0000.47,0000.11,0000.02,-000.31,-000.35,-000.01,19.5,25.7,07.7,05.3,0671.1,31.1
2021-07-20T20:29:00Z,00000200,00000000,0001.77,0000.79,0000.43,0000.23,0000.28,-000.23,-000.34,-000.34,-000.41,19.5,25.7,07.5,05.1,0671.1,31.1
2021-07-20T20:30:00Z,00000200,00000000,0001.97,0000.46,0000.82,-000.35,-000.02,0000.16,0000.32,-000.10,-000.01,19.5,25.7,07.5,05.1,0671.1,31.1
2021-07-20T20:31:00Z,00000200,00000000,0001.64,0000.50,0000.49,-000.01,0000.25,-000.04,0000.18,0000.49,0000.54,19.5,25.7,07.5,05.1,0671.1,31.1
2021-07-20T20:32:00Z,00000200,00000000,0001.59,0000.50,0000.76,0000.61,0000.21,0000.02,0000.05,0000.56,0000.12,19.5,25.7,07.6,05.2,0671.1,31.1
2021-07-20T20:33:00Z,00000200,00000000,0001.01,0000.52,0001.03,-000.00,0000.23,0000.49,-000.09,-000.58,-000.21,19.5,25.7,07.7,05.3,0671.0,31.1
2021-07-20T20:34:00Z,00000200,00000000,0001.35,0000.64,0000.58,0000.07,0000.23,-000.06,-000.19,0000.10,0000.25,19.5,25.7,07.5,05.1,0671.0,31.1
2021-07-20T20:35:00Z,00000200,00000000,0000.97,0000.46,0000.59,-000.30,-000.21,0000.06,-000.19,-000.25,-000.32,19.5,25.7,07.5,05.2,0671.0,31.1
2021-07-20T20:36:00Z,00000200,00000000,0001.78,0000.35,0000.57,0000.63,-000.00,0000.00,-000.21,-000.05,-000.06,19.5,25.7,07.5,05.2,0671.0,31.1
2021-07-20T20:37:00Z,00000200,00000000,0000.53,0000.91,0000.42,0000.17,0000.18,-000.17,0000.35,0000.23,0000.27,19.5,25.7,07.4,05.1,0671.0,31.1
2021-07-20T20:38:00Z,00000200,00000000,0001.50,0000.50,0000.44,0000.43,0000.03,-000.11,0000.11,-000.26,-000.25,19.5,25.7,07.6,05.2,0671.0,31.1
2021-07-20T20:39:00Z,00000200,00000000,0001.06,0000.86,0000.67,-000.08,0000.10,0000.25,-000.01,0000.22,0000.67,19.5,25.7,07.7,05.3,0671.0,31.1
2021-07-20T20:40:00Z,00000200,00000000,0001.73,0000.39,0000.82,-000.01,0000.16,0000.07,-000.37,-000.47,-000.28,19.5,25.7,07.5,05.2,0671.0,31.1
2021-07-20T20:41:00Z,00000200,00000000,0000.90,0000.53,0000.62,0000.35,0000.17,0000.07,0000.07,0000.30,-000.06,19.5,25.7,07.4,05.1,0671.0,31.1
2021-07-20T20:42:00Z,00000200,00000000,0001.78,0000.62,0000.62,-000.43,0000.09,0000.31,0000.47,0000.21,0000.30,19.5,25.7,07.6,05.2,0671.0,31.1
2021-07-20T20:43:00Z,00000200,00000000,0001.35,0000.87,0000.77,0000.73,0000.48,0000.40,0000.35,0000.27,-000.10,19.5,25.7,07.7,05.3,0671.0,31.1
2021-07-20T20:44:00Z,00000200,00000000,0001.66,0001.03,0000.94,0000.10,0000.24,0000.16,-000.34,-000.13,0000.23,19.5,25.6,07.8,05.4,0670.9,31.1
2021-07-20T20:45:00Z,00000200,00000000,0001.37,0000.83,0000.45,0000.81,-000.13,-000.11,0000.23,0000.09,0000.16,19.5,25.7,07.8,05.3,0670.9,31.1
2021-07-20T20:46:00Z,00000200,00000000,0001.34,0000.97,0000.53,0000.06,0000.16,-000.00,-000.06,0000.18,-000.03,19.5,25.7,07.8,05.4,0670.9,31.1
2021-07-20T20:47:00Z,00000200,00000000,0001.24,0000.97,0000.71,0000.00,0000.29,0000.27,-000.11,0000.25,-000.14,19.5,25.7,07.8,05.4,0670.9,31.1
2021-07-20T20:48:00Z,00000200,00000000,0001.24,0000.77,0000.67,-000.19,0000.22,0000.15,0000.04,-000.42,-000.19,19.5,25.7,07.8,05.4,0670.9,31.1
2021-07-20T20:49:00Z,00000200,00000000,0001.30,0000.46,0000.51,-000.34,0000.06,0000.24,0000.06,0000.06,0000.40,19.5,25.7,07.8,05.4,0670.9,31.1
2021-07-20T20:50:00Z,00000200,00000000,0000.97,0000.46,0000.54,0000.31,0000.04,-000.17,0000.23,-000.03,-000.00,19.5,25.6,07.9,05.4,0670.8,31.1
2021-07-20T20:51:00Z,00000200,00000000,0001.09,0000.52,0000.47,0000.64,-000.06,0000.09,-000.17,0000.08,0000.03,19.5,25.6,07.9,05.4,0670.8,31.1
2021-07-20T20:52:00Z,00000200,00000000,0001.71,0000.70,0000.54,0000.29,-000.16,-000.04,0000.22,0000.04,-000.03,19.5,25.6,07.8,05.4,0670.8,31.1
2021-07-20T20:53:00Z,00000200,00000000,0001.07,0000.54,0000.46,0000.42,0000.03,-000.13,-000.28,-000.05,-000.26,19.5,25.6,07.8,05.3,0670.8,31.1
2021-07-20T20:54:00Z,00000200,00000000,0001.00,0000.24,0000.29,0000.96,0000.12,-000.08,-000.81,-000.65,-000.63,19.5,25.6,07.5,05.2,0670.8,31.1
2021-07-20T20:55:00Z,00000200,00000000,0000.97,0000.36,0000.38,0000.09,0000.29,0000.42,-000.06,-000.39,0000.38,19.5,25.6,07.2,04.9,0670.8,31.1
2021-07-20T20:56:00Z,00000200,00000000,0001.10,0000.64,0000.30,0000.56,0000.26,-000.09,0000.27,0000.42,0000.06,19.5,25.6,07.2,05.0,0670.9,31.1
2021-07-20T20:57:00Z,00000200,40000000,,,,,,,0000.49,0000.56,0000.18,19.5,25.6,06.7,04.6,0670.8,31.1
2021-07-20T20:58:00Z,00000200,60000000,,,,,,,-000.30,-000.14,-000.03,19.3,25.8,07.7,05.2,0669.8,31.1
2021-07-20T20:59:00Z,00000200,20000000,,,,,,,-000.04,-000.35,0000.02,19.3,25.9,07.6,05.1,0669.8,31.1
